QPF
0.00 0.00 0.00 0.00 0.00 0.00 0.00 0.00 0.00 0.00 0.00 0.00 0.00 0.00 0.00 0.00 0.00 0.00 0.00 0.00 0.00 0.00 0.00 0.00 0.00 0.00 0.00 0.00 0.00 0.00 0.00 0.00 0.00 0.00 0.00 0.00 0.00 0.00 0.00 0.00 0.00 0.00 0.00 0.00 0.00 0.00 0.00 0.00 0.00
0.00 0.00 0.00 0.00 0.00 0.00 0.00 0.00 0.00 0.00 0.00 0.00 0.00 0.00 0.00 0.00 0.00 0.00 0.00 0.00 0.00 0.00 0.00 0.00 0.00 0.00 0.00 0.00 0.00 0.00 0.00 0.00 0.00 0.00 0.00 0.00 0.00 0.00 0.00 0.00 0.00 0.00 0.00 0.00 0.00 0.00 0.00 0.00 0.00
0.00 0.00 0.00 0.00 0.00 0.00 0.00 0.00 0.00 0.00 0.00 0.00 0.00 0.00 0.00 0.00 0.00 0.00 0.00 0.00 0.00 0.00 0.00 0.00 0.00 0.00 0.00 0.00 0.00 0.00 0.00 0.00 0.00 0.00 0.00 0.00 0.00 0.00 0.00 0.00 0.00 0.00 0.00 0.00 0.00 0.00 0.00 0.00 0.00
0.00 0.00 0.00 0.00 0.00 0.00 0.00 0.00 0.00 0.00 0.00 0.00 0.00 0.00 0.00 0.00 0.00 0.00 0.00 0.00 0.00 0.00 0.00 0.00 0.00 0.00 0.00 0.00 0.00 0.00 0.00 0.00 0.00 0.00 0.00 0.00 0.00 0.00 0.00 0.00 0.00 0.00 0.00 0.00 0.00 0.00 0.00 0.00 0.00
0.00 0.00 0.00 0.00 0.00 0.00 0.00 0.00 0.00 0.00 0.00 0.00 0.00 0.00 0.00 0.00 0.00 0.00 0.00 0.00 0.00 0.00 0.00 0.00 0.00 0.00 0.00 0.00 0.00 0.00 0.00 0.00 0.00 0.00 0.00 0.00 0.00 0.00 0.00 0.00 0.00 0.00 0.00 0.00 0.00 0.00 0.00 0.00 0.00
0.00 0.00 0.00 0.00 0.00 0.00 0.00 0.00 0.00 0.00 0.00 0.00 0.00 0.00 0.00 0.00 0.00 0.00 0.00 0.00 0.00 0.00 0.00 0.00 0.00 0.00 0.00 0.00 0.00 0.00 0.00 0.00 0.00 0.00 0.00 0.00 0.00 0.00 0.00 0.00 0.00 0.00 0.00 0.00 0.00 0.00 0.00 0.00 0.00
0.00 0.00 0.00 0.00 0.00 0.00 0.00 0.00 0.00 0.00 0.00 0.00 0.00 0.00 0.00 0.00 0.00 0.00 0.00 0.00 0.00 0.00 0.00 0.00 0.00 0.00 0.00 0.00 0.00 0.00 0.00 0.00 0.00 0.00 0.00 0.00 0.00 0.00 0.00 0.00 0.00 0.00 0.00 0.00 0.00 0.00 0.00 0.00 0.00
0.00 0.00 0.00 0.00 0.00 0.00 0.00 0.00 0.00 0.00 0.00 0.00 0.00 0.00 0.00 0.00 0.00 0.00 0.00 0.00 0.00 0.00 0.00 0.00 0.00 0.00 0.00 0.00 0.00 0.00 0.00 0.00 0.00 0.00 0.00 0.00 0.00 0.00 0.00 0.00 0.00 0.00 0.00 0.00 0.00 0.00 0.00 0.00 0.00
0.00 0.00 0.00 0.00 0.00 0.00 0.00 0.00 0.00 0.00 0.00 0.00 0.00 0.00 0.00 0.00 0.00 0.00 0.00 0.00 0.00 0.00 0.00 0.00 0.00 0.00 0.00 0.00 0.00 0.00 0.00 0.00 0.00 0.00 0.00 0.00 0.00 0.00 0.00 0.00 0.00 0.00 0.00 0.00 0.00 0.00 0.00 0.00 0.00
0.00 0.00 0.00 0.00 0.00 0.00 0.00 0.00 0.00 0.00 0.00 0.00 0.00 0.00 0.00 0.00 0.00 0.00 0.00 0.00 0.00 0.00 0.00 0.00 0.00 0.00 0.00 0.00 0.00 0.00 0.00 0.00 0.00 0.00 0.00 0.00 0.00 0.00 0.00 0.00 0.00 0.00 0.00 0.00 0.00 0.00 0.00 0.00 0.00
0.00 0.00 0.00 0.00 0.00 0.00 0.00 0.00 0.00 0.00 0.00 0.00 0.00 0.00 0.00 0.00 0.00 0.00 0.00 0.00 0.00 0.00 0.00 0.00 0.00 0.00 0.00 0.00 0.00 0.00 0.00 0.00 0.00 0.00 0.00 0.00 0.00 0.00 0.00 0.00 0.00 0.00 0.00 0.00 0.00 0.00 0.00 0.00 0.00
0.00 0.00 0.00 0.00 0.00 0.00 0.00 0.00 0.00 0.00 0.00 0.00 0.00 0.00 0.00 0.00 0.00 0.00 0.00 0.00 0.00 0.00 0.00 0.00 0.00 0.00 0.00 0.00 0.00 0.00 0.00 0.00 0.00 0.00 0.00 0.00 0.00 0.00 0.00 0.00 0.00 0.00 0.00 0.00 0.00 0.00 0.00 0.00 0.00
0.00 0.00 0.00 0.00 0.00 0.00 0.00 0.00 0.00 0.00 0.00 0.00 0.00 0.00 0.00 0.00 0.00 0.00 0.00 0.00 0.00 0.00 0.00 0.00 0.00 0.00 0.00 0.00 0.00 0.00 0.00 0.00 0.00 0.00 0.00 0.00 0.00 0.00 0.00 0.00 0.00 0.00 0.00 0.00 0.00 0.00 0.00 0.00 0.00
0.00 0.00 0.00 0.00 0.00 0.00 0.00 0.00 0.00 0.00 0.00 0.00 0.00 0.00 0.00 0.00 0.00 0.00 0.00 0.00 0.00 0.00 0.00 0.00 0.00 0.00 0.00 0.00 0.00 0.00 0.00 0.00 0.00 0.00 0.00 0.00 0.00 0.00 0.00 0.00 0.00 0.00 0.00 0.00 0.00 0.00 0.00 0.00 0.00
0.00 0.00 0.00 0.00 0.00 0.00 0.00 0.00 0.00 0.00 0.00 0.00 0.00 0.00 0.00 0.00 0.00 0.00 0.00 0.00 0.00 0.00 0.00 0.00 0.01 0.01 0.00 0.00 0.00 0.00 0.00 0.00 0.00 0.00 0.00 0.00 0.00 0.00 0.00 0.00 0.00 0.00 0.00 0.00 0.00 0.00 0.00 0.00 0.00
0.00 0.00 0.00 0.00 0.00 0.00 0.00 0.00 0.00 0.00 0.00 0.00 0.00 0.00 0.00 0.00 0.00 0.00 0.00 0.00 0.00 0.00 0.00 0.00 0.00 0.01 0.01 0.00 0.00 0.00 0.00 0.00 0.00 0.00 0.00 0.00 0.00 0.00 0.00 0.00 0.00 0.00 0.00 0.00 0.00 0.00 0.00 0.00 0.00
0.00 0.00 0.00 0.00 0.00 0.00 0.00 0.00 0.00 0.00 0.00 0.00 0.00 0.00 0.00 0.00 0.00 0.00 0.00 0.00 0.00 0.00 0.00 0.00 0.01 0.01 0.01 0.00 0.00 0.00 0.00 0.00 0.00 0.00 0.00 0.00 0.00 0.00 0.00 0.00 0.00 0.00 0.00 0.00 0.00 0.00 0.00 0.00 0.00
0.00 0.00 0.00 0.00 0.00 0.00 0.00 0.00 0.00 0.00 0.00 0.00 0.00 0.00 0.00 0.00 0.00 0.00 0.00 0.00 0.00 0.00 0.00 0.01 0.02 0.02 0.02 0.01 0.00 0.00 0.00 0.00 0.00 0.00 0.00 0.00 0.00 0.00 0.00 0.00 0.00 0.00 0.00 0.00 0.00 0.00 0.00 0.00 0.00
0.00 0.00 0.00 0.00 0.00 0.00 0.00 0.00 0.00 0.00 0.00 0.00 0.00 0.00 0.00 0.00 0.00 0.00 0.00 0.00 0.00 0.00 0.01 0.02 0.04 0.04 0.02 0.01 0.00 0.00 0.00 0.00 0.00 0.00 0.00 0.00 0.00 0.00 0.00 0.00 0.00 0.00 0.00 0.00 0.00 0.00 0.00 0.00 0.00
0.00 0.00 0.00 0.00 0.00 0.00 0.00 0.00 0.00 0.00 0.00 0.00 0.00 0.00 0.00 0.00 0.00 0.00 0.00 0.00 0.00 0.00 0.01 0.03 0.04 0.04 0.02 0.01 0.00 0.00 0.00 0.00 0.00 0.00 0.00 0.00 0.00 0.00 0.00 0.00 0.00 0.00 0.00 0.00 0.00 0.00 0.00 0.00 0.00
0.00 0.00 0.00 0.00 0.00 0.00 0.00 0.00 0.00 0.00 0.00 0.00 0.00 0.00 0.00 0.00 0.00 0.00 0.00 0.00 0.00 0.00 0.00 0.02 0.05 0.03 0.02 0.01 0.00 0.00 0.00 0.00 0.00 0.00 0.00 0.00 0.00 0.00 0.00 0.00 0.00 0.00 0.00 0.00 0.00 0.00 0.00 0.00 0.00
0.00 0.00 0.00 0.00 0.00 0.00 0.00 0.00 0.00 0.00 0.00 0.00 0.00 0.00 0.00 0.00 0.00 0.00 0.00 0.00 0.00 0.00 0.00 0.01 0.03 0.04 0.03 0.02 0.00 0.00 0.00 0.00 0.00 0.00 0.00 0.00 0.00 0.00 0.00 0.00 0.00 0.00 0.00 0.00 0.00 0.00 0.00 0.00 0.00
0.00 0.00 0.00 0.00 0.00 0.00 0.00 0.00 0.00 0.00 0.00 0.00 0.00 0.00 0.00 0.00 0.00 0.00 0.00 0.00 0.00 0.00 0.00 0.00 0.02 0.05 0.04 0.02 0.00 0.00 0.00 0.00 0.00 0.00 0.00 0.00 0.00 0.00 0.00 0.00 0.00 0.00 0.00 0.00 0.00 0.00 0.00 0.00 0.00
0.00 0.00 0.00 0.00 0.00 0.00 0.00 0.00 0.00 0.00 0.00 0.00 0.00 0.00 0.00 0.00 0.00 0.00 0.00 0.00 0.00 0.00 0.00 0.01 0.01 0.04 0.04 0.01 0.00 0.00 0.00 0.00 0.00 0.00 0.00 0.00 0.00 0.00 0.00 0.00 0.00 0.00 0.00 0.00 0.00 0.00 0.00 0.00 0.00
0.00 0.00 0.00 0.00 0.01 0.00 0.00 0.00 0.00 0.00 0.00 0.00 0.00 0.01 0.00 0.00 0.00 0.00 0.00 0.00 0.00 0.00 0.00 0.01 0.01 0.03 0.02 0.00 0.00 0.00 0.00 0.00 0.00 0.00 0.00 0.00 0.00 0.00 0.00 0.00 0.00 0.00 0.00 0.00 0.00 0.00 0.00 0.00 0.00
0.00 0.00 0.00 0.00 0.00 0.00 0.00 0.00 0.00 0.00 0.00 0.00 0.00 0.00 0.00 0.00 0.00 0.00 0.00 0.00 0.00 0.00 0.00 0.00 0.01 0.03 0.01 0.00 0.00 0.00 0.00 0.00 0.00 0.00 0.00 0.00 0.00 0.00 0.01 0.00 0.00 0.00 0.00 0.00 0.00 0.01 0.00 0.00 0.00
0.00 0.01 0.00 0.00 0.00 0.01 0.00 0.00 0.00 0.01 0.01 0.00 0.00 0.00 0.00 0.00 0.00 0.00 0.00 0.00 0.00 0.00 0.00 0.01 0.01 0.02 0.00 0.00 0.00 0.00 0.00 0.00 0.00 0.00 0.00 0.00 0.00 0.01 0.01 0.00 0.00 0.00 0.00 0.01 0.01 0.00 0.00 0.00 0.00
0.00 0.00 0.00 0.00 0.01 0.01 0.00 0.01 0.00 0.00 0.00 0.00 0.00 0.00 0.00 0.00 0.00 0.00 0.00 0.00 0.00 0.00 0.00 0.00 0.02 0.01 0.00 0.01 0.01 0.00 0.00 0.00 0.00 0.00 0.01 0.00 0.00 0.00 0.00 0.00 0.00 0.00 0.01 0.02 0.02 0.00 0.00 0.00 0.00
0.00 0.01 0.01 0.00 0.00 0.00 0.01 0.01 0.00 0.02 0.03 0.02 0.00 0.00 0.00 0.00 0.00 0.00 0.00 0.00 0.00 0.00 0.00 0.01 0.03 0.01 0.02 0.05 0.03 0.00 0.00 0.00 0.02 0.02 0.06 0.05 0.03 0.03 0.03 0.03 0.02 0.01 0.02 0.01 0.01 0.00 0.00 0.00 0.00
0.00 0.00 0.01 0.01 0.02 0.01 0.01 0.00 0.00 0.02 0.01 0.01 0.04 0.02 0.00 0.01 0.00 0.00 0.00 0.00 0.00 0.00 0.00 0.01 0.03 0.04 0.03 0.06 0.06 0.02 0.03 0.03 0.07 0.05 0.06 0.05 0.06 0.04 0.02 0.04 0.05 0.03 0.02 0.01 0.00 0.00 0.00 0.00 0.00
MSLP
1010.47 1009.64 1008.99 1007.87 1006.21 1003.73 1001.10 1000.28 1000.80 1000.72 1000.78 1001.05 1001.09 1000.66 1000.35 1000.55 1000.43 1000.78 1002.70 1002.97 1003.47 1003.70 1004.54 1006.45 1007.14 1007.47 1007.59 1007.37 1007.71 1008.00 1008.72 1009.30 1009.85 1009.81 1009.95 1010.42 1010.91 1011.32 1011.70 1012.06 1012.40 1012.71 1012.88 1013.05 1013.32 1013.58 1013.78 1013.84 1013.87
1009.89 1009.41 1008.48 1006.48 1004.69 1001.78 1000.29 1000.53 1001.40 1000.86 1001.34 1002.07 1001.56 1001.39 1001.08 1000.82 1000.97 1001.30 1002.09 1003.61 1003.72 1003.93 1005.02 1005.99 1007.10 1007.55 1007.79 1007.91 1007.96 1008.27 1008.93 1009.36 1009.88 1010.25 1010.26 1010.65 1010.96 1011.29 1011.70 1012.14 1012.41 1012.65 1012.94 1013.19 1013.45 1013.67 1013.86 1014.00 1014.04
1010.14 1009.38 1006.99 1005.16 1003.25 1001.28 1000.34 1001.43 1001.57 1001.42 1002.43 1002.40 1001.84 1001.84 1001.47 1001.55 1002.27 1002.97 1003.80 1004.08 1004.26 1004.64 1005.17 1005.78 1007.17 1007.57 1007.88 1008.01 1008.26 1008.56 1009.21 1009.47 1009.92 1010.34 1010.43 1010.77 1011.09 1011.31 1011.79 1012.24 1012.46 1012.73 1012.99 1013.24 1013.49 1013.71 1013.85 1013.97 1014.00
1009.07 1008.27 1007.05 1004.90 1002.32 1002.05 1001.98 1002.48 1003.18 1002.63 1002.67 1002.80 1002.46 1002.05 1002.06 1003.42 1003.53 1004.00 1004.02 1004.34 1004.61 1005.10 1005.40 1006.06 1007.09 1007.37 1008.11 1008.23 1008.46 1008.96 1009.38 1009.70 1009.93 1010.43 1010.67 1010.81 1011.22 1011.57 1011.82 1012.40 1012.73 1012.91 1013.19 1013.38 1013.58 1013.81 1013.90 1013.96 1013.93
1008.86 1007.10 1005.07 1003.80 1002.54 1002.29 1003.37 1003.64 1003.90 1003.27 1003.10 1002.99 1003.06 1002.12 1002.33 1003.26 1003.77 1003.88 1004.02 1004.38 1004.52 1004.89 1005.39 1006.35 1007.07 1007.43 1007.79 1008.37 1008.57 1009.09 1009.60 1009.91 1010.07 1010.29 1010.65 1010.98 1011.39 1011.65 1011.98 1012.40 1012.85 1013.02 1013.28 1013.49 1013.69 1013.75 1013.88 1013.90 1013.81
1007.69 1006.78 1004.58 1002.73 1002.23 1003.49 1003.89 1004.44 1004.51 1003.95 1003.44 1003.38 1003.29 1002.89 1002.55 1003.13 1003.28 1003.68 1003.80 1003.91 1004.12 1004.58 1005.55 1006.52 1007.21 1007.53 1007.91 1008.35 1008.68 1009.19 1009.68 1010.14 1010.38 1010.34 1010.55 1010.99 1011.49 1011.79 1012.09 1012.38 1012.82 1013.07 1013.31 1013.49 1013.68 1013.81 1013.77 1013.71 1013.63
1007.20 1006.23 1004.32 1003.34 1003.47 1004.32 1004.48 1005.57 1004.78 1004.30 1004.16 1003.69 1003.58 1003.41 1002.37 1002.86 1003.28 1003.84 1003.75 1003.91 1004.02 1004.42 1005.50 1006.30 1006.87 1007.66 1008.08 1008.27 1008.90 1009.20 1009.62 1010.15 1010.54 1010.64 1010.87 1011.07 1011.49 1011.96 1012.13 1012.45 1012.84 1013.09 1013.37 1013.49 1013.64 1013.78 1013.71 1013.59 1013.51
1007.90 1006.86 1004.98 1004.57 1004.48 1004.55 1004.91 1005.94 1005.81 1005.67 1004.96 1004.66 1004.82 1003.25 1002.44 1002.67 1003.85 1003.86 1003.24 1003.70 1003.88 1004.37 1005.19 1006.08 1006.73 1007.35 1007.85 1008.49 1009.03 1009.25 1009.64 1010.14 1010.56 1010.84 1011.06 1011.35 1011.84 1012.22 1012.41 1012.57 1012.81 1013.03 1013.35 1013.56 1013.70 1013.75 1013.61 1013.46 1013.44
1008.69 1006.78 1005.22 1005.01 1005.22 1005.13 1005.73 1005.94 1005.68 1006.05 1005.82 1005.17 1004.61 1004.14 1004.03 1004.11 1004.22 1003.77 1003.21 1003.38 1004.04 1004.60 1004.79 1005.46 1006.18 1006.82 1007.17 1007.66 1008.89 1009.61 1009.98 1010.40 1010.67 1010.95 1011.31 1011.54 1011.32 1011.87 1012.45 1012.32 1012.75 1013.10 1013.29 1013.47 1013.61 1013.74 1013.63 1013.32 1013.06
1008.09 1006.89 1005.78 1006.47 1006.59 1006.59 1006.43 1006.46 1006.17 1005.86 1005.49 1004.77 1004.23 1003.99 1004.14 1004.06 1003.93 1003.78 1003.26 1002.80 1003.27 1004.98 1004.57 1004.90 1005.64 1006.25 1006.79 1007.14 1008.27 1008.93 1009.40 1009.85 1010.17 1010.46 1011.02 1010.75 1010.76 1011.28 1011.47 1012.19 1012.96 1013.10 1013.29 1013.35 1013.41 1013.49 1013.45 1013.12 1011.37
1008.57 1007.29 1007.30 1007.41 1007.54 1007.52 1007.04 1006.51 1006.22 1005.72 1004.93 1004.79 1004.17 1003.70 1003.68 1003.90 1003.75 1003.45 1003.19 1002.74 1002.80 1003.30 1004.72 1004.48 1005.37 1006.05 1006.45 1006.92 1007.62 1008.03 1008.59 1009.02 1009.69 1010.01 1010.58 1010.38 1010.70 1011.32 1011.59 1011.79 1012.26 1012.31 1012.97 1012.21 1012.63 1012.60 1012.16 1011.58 1011.45
1008.86 1008.05 1008.31 1007.93 1007.95 1007.66 1006.91 1006.50 1005.73 1005.46 1004.84 1004.76 1004.36 1003.93 1003.71 1003.70 1003.45 1003.01 1002.86 1002.75 1002.46 1002.99 1004.10 1004.62 1005.02 1005.94 1006.34 1006.61 1007.23 1007.41 1007.82 1008.22 1009.05 1009.59 1010.26 1010.34 1010.58 1010.99 1011.14 1011.19 1011.42 1011.93 1011.76 1011.75 1012.08 1011.38 1011.75 1011.93 1011.81
1008.54 1008.30 1008.41 1008.06 1007.64 1007.05 1006.67 1005.89 1005.36 1004.65 1004.68 1004.56 1004.23 1003.90 1003.58 1003.28 1003.20 1003.09 1002.99 1003.09 1003.23 1002.54 1003.16 1004.60 1004.95 1005.66 1006.26 1006.59 1006.96 1007.07 1007.36 1007.89 1008.38 1009.11 1009.85 1010.09 1010.22 1010.75 1011.24 1011.37 1011.32 1011.35 1011.42 1011.56 1011.66 1011.54 1011.60 1011.75 1011.93
1008.49 1008.32 1007.97 1007.29 1006.56 1006.22 1005.72 1005.25 1005.23 1004.08 1004.03 1004.04 1003.81 1003.44 1003.14 1002.82 1002.72 1002.58 1002.68 1002.70 1002.79 1002.54 1002.73 1003.88 1004.96 1005.41 1005.91 1006.34 1006.65 1007.09 1007.23 1007.65 1008.22 1008.55 1009.14 1009.72 1009.85 1010.74 1011.04 1011.41 1011.37 1011.34 1011.43 1011.35 1011.44 1011.50 1011.73 1011.78 1011.93
1008.57 1007.78 1006.66 1006.07 1006.09 1005.73 1005.38 1004.79 1003.30 1003.20 1003.43 1003.26 1002.84 1002.65 1002.52 1002.36 1002.44 1002.37 1002.31 1002.28 1002.27 1002.13 1002.50 1002.83 1004.24 1005.06 1005.45 1006.00 1006.34 1006.73 1007.04 1007.23 1007.76 1008.24 1008.99 1009.55 1010.05 1010.71 1010.76 1010.92 1011.05 1011.00 1011.27 1011.53 1011.67 1011.89 1011.96 1011.88 1011.96
1007.36 1006.94 1005.08 1004.71 1004.87 1004.84 1005.52 1003.11 1002.37 1002.63 1002.78 1002.38 1002.14 1002.01 1001.99 1001.90 1001.65 1001.85 1001.85 1001.94 1002.02 1002.01 1001.84 1002.50 1002.99 1004.32 1005.03 1005.43 1005.91 1006.15 1006.49 1006.97 1007.36 1007.85 1008.49 1009.27 1009.91 1010.50 1010.95 1010.91 1010.91 1011.06 1011.26 1011.16 1011.46 1011.64 1011.76 1011.83 1011.90
1006.02 1005.09 1004.64 1004.20 1004.12 1004.29 1004.69 1002.48 1002.56 1002.61 1002.36 1001.79 1001.36 1001.33 1001.31 1001.09 1000.83 1000.98 1001.54 1001.48 1001.49 1001.31 1001.41 1001.78 1002.30 1003.39 1004.42 1004.91 1005.40 1005.76 1006.16 1006.77 1007.06 1007.55 1007.97 1008.85 1009.40 1010.03 1010.16 1010.28 1010.66 1011.36 1011.31 1011.39 1011.54 1011.93 1012.01 1011.94 1012.08
1006.03 1005.53 1004.81 1003.86 1003.37 1003.22 1002.64 1001.12 1001.45 1001.21 1000.61 1000.16 1000.14 1000.05 1000.25 1000.25 1000.02 1000.07 1000.56 1000.91 1000.97 1000.56 1000.85 1001.20 1001.93 1002.82 1003.90 1004.51 1004.93 1005.31 1005.90 1006.32 1006.64 1007.22 1007.58 1008.61 1008.92 1009.59 1010.12 1010.07 1010.53 1010.99 1011.13 1011.34 1011.57 1012.08 1012.29 1012.23 1012.26
1006.95 1005.90 1004.53 1003.66 1002.97 1002.46 1001.49 1000.51 1000.42 1000.02 999.43 999.04 998.79 998.84 998.84 999.17 999.36 999.64 999.95 1000.17 1000.70 1000.37 1000.43 1000.72 1001.44 1002.33 1003.38 1004.07 1004.26 1004.26 1004.66 1005.47 1006.07 1006.73 1007.43 1008.17 1008.55 1009.19 1009.91 1009.90 1010.58 1010.98 1011.11 1011.34 1011.98 1012.35 1012.41 1012.21 1012.56
1006.72 1005.64 1004.20 1003.35 1002.43 1002.11 1000.50 999.97 999.14 998.54 998.46 998.22 998.12 998.04 997.91 998.14 998.54 998.81 999.08 999.62 999.90 1000.03 1000.22 1000.46 1000.85 1001.65 1002.67 1003.49 1003.38 1003.46 1004.14 1004.91 1005.70 1006.55 1007.34 1007.77 1008.28 1008.85 1009.42 1009.58 1010.13 1010.70 1010.87 1011.74 1011.94 1012.38 1012.19 1012.46 1012.89
1006.16 1005.24 1004.43 1003.67 1002.75 1001.73 999.89 999.11 997.87 997.89 997.65 997.86 997.76 997.79 997.75 997.61 997.72 997.98 998.49 998.77 999.17 999.39 999.58 1000.03 1000.40 1001.09 1001.79 1002.43 1002.90 1003.33 1003.98 1004.82 1005.46 1006.03 1006.78 1007.59 1008.01 1008.55 1008.99 1009.46 1009.88 1010.74 1010.88 1011.30 1012.02 1012.33 1012.42 1011.98 1013.07
1005.99 1005.31 1005.14 1004.13 1003.25 1001.54 1001.87 999.59 999.07 997.66 997.09 997.01 997.06 997.12 996.99 996.90 997.15 997.27 997.48 998.02 997.99 998.60 998.97 999.40 999.78 1000.53 1001.13 1001.76 1002.19 1002.53 1002.84 1003.54 1004.35 1005.23 1006.29 1007.24 1007.82 1008.20 1008.61 1009.28 1010.02 1010.64 1010.88 1011.35 1012.03 1012.37 1012.52 1012.72 1012.43
1006.56 1006.26 1005.33 1004.06 1003.22 1002.59 1001.44 1000.33 998.18 996.94 996.55 996.86 997.02 996.99 996.74 996.26 996.14 996.04 996.33 996.76 997.08 997.59 998.14 998.85 999.23 999.96 1000.48 1001.22 1001.47 1002.39 1002.69 1003.29 1004.18 1004.88 1005.74 1006.65 1007.51 1008.02 1008.73 1009.35 1009.93 1010.60 1011.03 1012.08 1012.29 1012.73 1012.99 1013.06 1013.00
1007.05 1005.88 1004.32 1003.88 1003.65 1003.02 1000.90 1001.01 999.22 998.23 998.66 997.92 997.61 997.31 996.40 995.67 995.16 995.05 995.15 995.67 995.87 996.44 996.96 997.99 998.88 999.49 1000.16 1000.94 1001.34 1001.99 1002.49 1002.72 1003.38 1003.85 1005.47 1006.09 1007.14 1008.08 1008.84 1009.52 1010.08 1010.91 1011.79 1012.59 1012.80 1013.22 1013.67 1013.68 1013.57
1006.71 1006.14 1005.55 1004.38 1003.54 1001.59 1002.12 1001.93 1000.21 1000.29 999.99 999.56 998.55 996.90 995.55 994.45 994.01 993.78 994.00 994.43 994.89 995.43 995.97 997.27 998.60 999.32 1000.09 1000.72 1001.20 1001.84 1002.31 1002.78 1002.88 1003.55 1004.87 1005.44 1006.39 1007.53 1008.76 1009.46 1010.48 1011.40 1012.23 1013.08 1013.29 1013.57 1014.14 1014.60 1014.12
1006.99 1007.96 1008.40 1007.53 1005.62 1003.37 1002.90 1002.48 1001.70 1002.11 1001.53 1000.05 998.95 997.30 995.67 993.76 993.31 992.95 993.22 993.72 994.08 994.95 995.47 997.14 998.20 999.22 1000.04 1000.52 1000.91 1001.53 1002.21 1002.63 1002.79 1003.40 1004.09 1004.89 1006.00 1007.34 1008.81 1009.53 1010.63 1011.77 1012.91 1013.28 1013.61 1014.20 1014.43 1015.21 1015.21
1007.16 1007.89 1009.16 1009.24 1007.84 1006.03 1002.95 1002.99 1003.40 1002.87 1001.78 1000.41 999.42 997.93 996.05 993.92 993.40 992.99 992.81 992.99 993.80 994.26 995.43 997.03 997.86 998.85 999.75 1000.14 1000.81 1001.26 1001.97 1002.25 1002.23 1003.54 1003.89 1004.77 1006.06 1007.56 1008.82 1009.74 1010.68 1011.77 1013.04 1013.38 1014.08 1014.63 1015.17 1015.57 1015.73
1007.66 1008.69 1009.28 1009.91 1008.67 1006.04 1003.34 1003.16 1004.27 1003.59 1002.61 1001.09 999.38 998.18 996.90 994.82 992.57 992.66 992.69 992.91 993.31 993.89 995.32 996.58 997.47 997.93 999.29 999.77 1000.82 1000.97 1001.60 1002.02 1003.01 1003.70 1004.40 1005.30 1006.59 1008.07 1009.67 1010.31 1011.40 1012.20 1012.97 1013.76 1014.55 1015.34 1015.74 1016.12 1015.59
1007.00 1008.04 1008.94 1010.19 1009.61 1008.23 1005.40 1003.78 1004.47 1004.24 1003.60 1002.03 1000.28 998.99 997.23 994.33 992.02 991.66 992.36 992.56 992.92 993.57 995.21 996.15 997.52 998.14 999.25 999.77 1000.21 1001.03 1001.08 1002.99 1004.08 1004.87 1005.22 1006.34 1007.16 1008.86 1010.11 1011.14 1011.98 1013.11 1014.05 1014.40 1015.32 1015.38 1016.22 1016.00 1016.54
1006.72 1007.31 1008.18 1009.40 1008.99 1008.50 1007.39 1004.53 1003.91 1004.73 1004.05 1002.58 1001.47 999.86 997.74 994.18 992.19 991.53 992.14 991.97 992.90 994.01 995.78 996.45 997.54 998.31 999.12 999.91 1000.78 1000.66 1002.71 1003.93 1004.30 1005.43 1006.03 1008.26 1008.67 1009.99 1010.33 1011.94 1012.85 1014.01 1014.68 1015.21 1016.56 1016.34 1016.10 1016.81 1016.92
Thickness
5774 5781 5788 5786 5771 5785 5793 5804 5815 5806 5807 5825 5831 5830 5831 5839 5828 5815 5853 5858 5859 5860 5854 5838 5834 5833 5832 5835 5837 5837 5834 5829 5825 5826 5824 5817 5812 5808 5805 5803 5801 5798 5796 5796 5793 5790 5787 5786 5786
5775 5779 5781 5781 5766 5779 5796 5809 5789 5808 5813 5815 5822 5824 5825 5821 5845 5845 5850 5852 5855 5855 5845 5837 5830 5830 5829 5829 5830 5831 5828 5827 5823 5820 5820 5814 5811 5808 5805 5802 5801 5799 5795 5793 5790 5788 5786 5784 5783
5769 5773 5772 5771 5776 5779 5791 5790 5796 5808 5805 5804 5808 5823 5824 5817 5832 5834 5843 5846 5848 5846 5842 5836 5826 5825 5825 5825 5825 5824 5822 5823 5820 5817 5817 5813 5810 5809 5804 5800 5799 5797 5795 5792 5789 5786 5785 5783 5781
5767 5768 5768 5759 5772 5785 5784 5782 5782 5788 5797 5801 5806 5799 5820 5823 5820 5829 5841 5842 5840 5838 5837 5832 5824 5822 5819 5821 5820 5817 5816 5816 5817 5813 5812 5811 5808 5805 5804 5798 5795 5795 5792 5790 5788 5785 5783 5782 5781
5763 5766 5759 5761 5770 5784 5775 5775 5774 5775 5783 5788 5795 5794 5798 5818 5825 5831 5833 5835 5835 5837 5833 5826 5821 5819 5818 5816 5815 5811 5811 5811 5811 5812 5810 5807 5804 5802 5801 5798 5793 5793 5791 5788 5786 5785 5783 5782 5782
5750 5757 5751 5764 5771 5764 5770 5767 5764 5768 5779 5783 5782 5784 5796 5819 5819 5823 5831 5832 5837 5834 5829 5820 5817 5814 5813 5812 5811 5806 5805 5804 5805 5808 5808 5804 5800 5799 5797 5796 5793 5791 5789 5787 5785 5783 5783 5783 5782
5745 5745 5752 5761 5750 5743 5758 5756 5755 5759 5762 5770 5784 5768 5796 5807 5814 5818 5826 5829 5832 5832 5825 5819 5814 5809 5808 5809 5805 5804 5802 5800 5799 5801 5801 5801 5797 5794 5795 5794 5790 5788 5786 5785 5783 5782 5782 5782 5782
5739 5737 5741 5743 5734 5735 5752 5743 5747 5742 5746 5768 5770 5766 5778 5794 5807 5810 5821 5822 5825 5825 5821 5817 5812 5807 5805 5802 5801 5800 5798 5795 5794 5795 5795 5794 5791 5789 5790 5790 5788 5786 5784 5781 5779 5779 5780 5781 5780
5731 5724 5727 5731 5723 5728 5740 5732 5743 5744 5738 5748 5759 5767 5777 5786 5792 5797 5806 5811 5812 5813 5818 5816 5811 5808 5805 5802 5795 5792 5792 5790 5789 5790 5789 5790 5791 5788 5784 5787 5785 5782 5780 5779 5777 5775 5776 5779 5780
5717 5715 5719 5720 5711 5706 5717 5720 5725 5725 5727 5738 5746 5765 5770 5773 5777 5781 5790 5799 5806 5796 5810 5814 5810 5808 5805 5802 5795 5791 5790 5790 5791 5790 5787 5790 5791 5788 5787 5783 5779 5778 5776 5775 5776 5775 5774 5777 5788
5701 5699 5701 5696 5693 5694 5695 5702 5714 5713 5716 5724 5730 5746 5756 5760 5767 5775 5783 5793 5799 5806 5800 5810 5806 5803 5803 5800 5795 5794 5791 5791 5790 5790 5786 5789 5788 5784 5782 5781 5778 5779 5774 5779 5778 5778 5781 5784 5784
5680 5690 5679 5679 5678 5677 5680 5690 5695 5699 5711 5718 5725 5738 5741 5745 5754 5766 5773 5781 5792 5797 5796 5799 5802 5799 5798 5798 5794 5796 5794 5793 5788 5787 5783 5785 5785 5783 5782 5782 5781 5777 5778 5779 5777 5784 5781 5778 5777
5674 5673 5669 5670 5670 5673 5675 5676 5680 5690 5693 5704 5715 5724 5729 5737 5745 5755 5764 5770 5777 5789 5794 5790 5795 5794 5792 5792 5791 5793 5793 5790 5789 5785 5780 5780 5782 5780 5776 5777 5778 5777 5776 5776 5776 5779 5779 5777 5772
5671 5666 5663 5668 5673 5673 5669 5671 5666 5683 5688 5686 5695 5704 5717 5725 5733 5745 5752 5759 5766 5780 5786 5786 5785 5788 5789 5789 5789 5786 5787 5788 5785 5783 5782 5779 5779 5774 5774 5772 5774 5774 5773 5774 5774 5775 5774 5772 5770
5663 5657 5669 5672 5669 5669 5671 5657 5668 5684 5682 5679 5687 5693 5703 5712 5722 5729 5742 5750 5759 5772 5777 5783 5781 5782 5784 5785 5786 5784 5784 5785 5783 5781 5777 5775 5772 5770 5772 5772 5772 5773 5771 5770 5770 5768 5767 5768 5767
5664 5661 5666 5679 5676 5674 5659 5660 5683 5684 5677 5677 5680 5683 5688 5698 5711 5721 5733 5741 5751 5761 5771 5775 5783 5780 5779 5781 5784 5784 5784 5782 5780 5778 5776 5771 5769 5765 5764 5765 5767 5767 5766 5770 5769 5767 5765 5764 5764
5671 5662 5663 5667 5677 5668 5654 5663 5674 5675 5671 5671 5677 5676 5677 5686 5700 5713 5718 5732 5742 5754 5763 5768 5775 5776 5775 5778 5779 5780 5781 5776 5777 5774 5775 5771 5768 5765 5767 5768 5766 5760 5762 5763 5763 5759 5758 5757 5756
5649 5649 5656 5658 5673 5670 5665 5673 5673 5677 5680 5679 5678 5680 5675 5677 5689 5702 5710 5719 5731 5748 5757 5763 5766 5770 5770 5771 5772 5774 5774 5774 5775 5773 5774 5768 5768 5766 5764 5768 5766 5760 5760 5759 5759 5753 5752 5752 5750
5644 5645 5649 5664 5675 5665 5668 5669 5669 5677 5678 5676 5679 5678 5679 5675 5686 5684 5690 5703 5713 5732 5744 5754 5757 5762 5762 5762 5765 5770 5773 5772 5773 5773 5771 5767 5767 5766 5763 5766 5760 5757 5756 5755 5751 5746 5744 5746 5743
5641 5641 5651 5665 5675 5667 5671 5665 5677 5679 5671 5673 5672 5671 5674 5673 5675 5677 5682 5687 5701 5719 5733 5743 5751 5756 5759 5760 5768 5773 5771 5770 5769 5767 5765 5765 5766 5765 5762 5763 5759 5756 5755 5747 5746 5740 5740 5738 5733
5641 5641 5646 5647 5659 5668 5672 5661 5677 5671 5671 5666 5666 5664 5663 5663 5662 5669 5669 5676 5687 5705 5723 5733 5743 5749 5756 5760 5763 5765 5764 5762 5759 5761 5762 5762 5762 5760 5759 5757 5756 5750 5750 5746 5740 5737 5734 5733 5724
5629 5649 5640 5641 5640 5641 5644 5615 5646 5660 5661 5663 5660 5659 5657 5657 5654 5660 5664 5665 5681 5692 5713 5728 5737 5742 5751 5757 5757 5760 5764 5764 5766 5765 5762 5758 5758 5758 5756 5754 5751 5746 5745 5741 5735 5732 5728 5725 5721
5625 5635 5635 5642 5642 5632 5638 5621 5649 5666 5656 5653 5651 5650 5649 5652 5649 5653 5658 5664 5675 5690 5702 5716 5728 5736 5745 5749 5756 5756 5759 5763 5761 5760 5759 5757 5754 5754 5750 5747 5745 5740 5737 5728 5727 5723 5719 5717 5714
5628 5633 5647 5644 5633 5608 5639 5621 5630 5639 5631 5637 5639 5637 5638 5637 5638 5640 5654 5659 5669 5684 5698 5708 5717 5727 5735 5741 5749 5751 5754 5759 5759 5761 5754 5754 5751 5747 5743 5740 5738 5731 5724 5717 5716 5714 5708 5705 5705
5627 5620 5596 5619 5622 5642 5629 5608 5625 5624 5622 5617 5617 5630 5633 5630 5624 5627 5639 5650 5662 5672 5687 5699 5706 5713 5724 5734 5742 5745 5750 5753 5758 5758 5752 5751 5749 5742 5736 5734 5725 5719 5713 5705 5706 5704 5696 5691 5694
5617 5598 5572 5571 5596 5619 5623 5599 5607 5605 5605 5613 5615 5619 5620 5626 5617 5616 5631 5646 5661 5668 5682 5685 5698 5704 5715 5726 5736 5740 5743 5748 5752 5751 5753 5750 5744 5738 5729 5726 5719 5709 5699 5698 5696 5690 5689 5680 5680
5610 5596 5590 5564 5576 5576 5620 5611 5596 5597 5597 5604 5605 5608 5614 5626 5620 5621 5635 5648 5657 5667 5673 5676 5689 5701 5710 5724 5731 5735 5739 5743 5748 5746 5751 5744 5741 5731 5722 5718 5712 5705 5694 5692 5685 5680 5674 5671 5669
5604 5597 5577 5565 5573 5585 5628 5611 5572 5577 5579 5593 5602 5603 5606 5621 5636 5636 5642 5652 5663 5670 5672 5676 5687 5703 5708 5719 5720 5731 5733 5735 5736 5739 5736 5734 5729 5721 5710 5705 5698 5693 5687 5681 5673 5665 5662 5659 5663
5603 5587 5582 5560 5564 5567 5580 5605 5584 5579 5576 5584 5593 5597 5606 5632 5648 5650 5650 5658 5666 5672 5672 5678 5680 5693 5700 5709 5717 5720 5729 5721 5720 5725 5725 5721 5719 5708 5697 5689 5683 5674 5667 5665 5659 5658 5650 5653 5647
5611 5596 5589 5561 5569 5569 5563 5587 5606 5579 5577 5587 5586 5591 5608 5642 5654 5656 5653 5661 5662 5667 5664 5672 5678 5687 5697 5707 5705 5718 5711 5709 5717 5712 5713 5699 5700 5688 5686 5673 5665 5658 5654 5649 5640 5639 5645 5638 5637